Starlink 11374

operational
NORAD ID: 61581 Int'l Des: 2024-187 Owner: SPXS Country: US Constellation: starlink
LEOCIRCULAR

Starlink 11374について

説明を読み込み中...

リアルタイム位置

3D地球を読み込み中...

次回通過

高度履歴

Altitude vs Time

uPlot chart will show altitude changes over time

軌道要素

1 61581U 24187H 25353.13695669 .00001060 00000-0 13609-4 0 9996
2 61581 53.1591 333.7114 0001201 109.2173 250.8975 15.69702470 68142
Epoch: Dec 19, 2025 • Age: 26 hours

現在のステータス

高度 365.5 km
速度 7.70 km/s
衛星直下点 52.75°N, 126.56°W
打ち上げ日 Oct 18, 2024
運用期間 1.1 years
タイプ internet

技術仕様

分類 Payload
質量 960.00 kg
乾燥質量 910.00 kg
総質量 960.00 kg
長さ 0.30 m
直径 4.10 m
スパン 29.00 m
形状 Box + pan
製造者 SPXS
バスタイプ Starlink V2MD
フェーズステータス In Orbit
所有者/国 SPXS/US

大規模コンステレーション

Loading constellations...